Estación Meteorológica Peña el Pijo (Robertgarden) [ 07/11/20 22:32:13 CEST ]

Fecha Hora Presion(HPa) Temp (°C) Humedad % Rocio (°C) Viento ( m/s) Direccion Lluvia 1Hora(mm) Lluvia 24H(mm) LLuvia Total(mm)
2020-Mar-10 01:09:25 1014.900 - - - - N     39.88
2020-Mar-10 02:14:46 1014.500 - - - - N     39.88
2020-Mar-10 03:09:29 1014.300 - - - - N     39.88
2020-Mar-10 04:12:02 1014.600 - - - - N     39.88
2020-Mar-10 05:09:39 1014.600 - - - - N     39.88
2020-Mar-10 06:10:55 1014.600 - - - - N     39.88
2020-Mar-10 07:09:20 1015.100 - - - - N     39.88
2020-Mar-10 08:09:01 1015.700 - - - - N     39.88
2020-Mar-10 09:08:55 1016.100 - - - - N     39.88
2020-Mar-10 10:09:37 1016.200 - - - - N     39.88
2020-Mar-10 11:09:33 1016.600 - - - - N     39.88
2020-Mar-10 12:09:09 1016.400 - - - - N     39.88
2020-Mar-10 13:09:35 1016.000 - - - - N     39.88
2020-Mar-10 14:08:46 1015.800 - - - - N     39.88
2020-Mar-10 15:08:48 1014.900 - - - - N     39.88
2020-Mar-10 16:08:46 1014.400 - - - - N     39.88
2020-Mar-10 17:09:15 1014.600 - - - - N     39.88
2020-Mar-10 18:09:13 1014.600 - - - - N     39.88
2020-Mar-10 19:09:21 1015.400 - - - - N     39.88
2020-Mar-10 20:09:24 1016.000 - - - - N     39.88
2020-Mar-10 21:09:13 1016.200 - - - - N     39.88
2020-Mar-10 22:09:06 1016.700 - - - - N     39.88
2020-Mar-10 23:09:09 1016.800 - - - - N     39.88

Temperatura Máxima:    Temperatura Mínima:
Presión Máxima:1016.800 Hpa    Presión Mínima:1014.300 Hpa


Volver